Change the Weather History Date:

Sunday, December 16, 2012

  Actual Average Record
Temperature  
Mean Temperature 52 °F -  
Max Temperature 59 °F 40 °F 59 °F (2006)
Min Temperature 46 °F 26 °F 19 °F (2008)
Degree Days  
Heating Degree Days 12    
Growing Degree Days 2 (Base 50)    
Moisture  
Dew Point 49 °F    
Average Humidity 83    
Maximum Humidity 94    
Minimum Humidity 63    
Precipitation  
Precipitation 0.00 in - - ()
Sea Level Pressure  
Sea Level Pressure 29.74 in    
Wind  
Wind Speed 9 mph (SW)    
Max Wind Speed 15 mph    
Max Gust Speed 20 mph    
Averages and records for this station are not official NWS values.
T = Trace of Precipitation, MM = Missing Value Source: NWS Daily Summary

Daily Weather History Graph

Daily Weather History Graph

Search for Another Location

Airport or City:

Trip Planner

Search our weather history database for the weather conditions in past years. The results will help you decide how hot, cold, wet, or windy it might be!

Date:

Astronomy

Dec. 16, 2012 Rise Set
Actual Time 7:58 AM EST 5:29 PM EST
Civil Twilight 7:28 AM EST 5:58 PM EST
Nautical Twilight 6:55 AM EST 6:31 PM EST
Astronomical Twilight 6:23 AM EST 7:04 PM EST
Moon 10:33 AM EST (12/16) 9:39 PM EST (12/16)
Length of Visible Light 10h 30m
Length of Day
9h 30m
Waxing Crescent, 16% of the Moon is Illuminated
Dec 16
Waxing Crescent
Dec 20
First Quarter
Dec 28
Full
Jan 4
Last Quarter
Jan 11
New

Hourly Weather History & Observations

Time (EST) Temp. Windchill Dew Point Humidity Pressure Visibility Wind Dir Wind Speed Gust Speed Precip Events Conditions
12:15 AM 55.4 °F - 51.8 °F 88% 29.80 in - South 9.2 mph - N/A   Unknown
12:35 AM 55.4 °F - 51.8 °F 88% 29.79 in - SSW 11.5 mph - N/A   Unknown
12:55 AM 55.4 °F - 51.8 °F 88% 29.78 in - SSW 11.5 mph - N/A   Unknown
1:15 AM 55.4 °F - 51.8 °F 88% 29.77 in - South 11.5 mph - N/A   Unknown
1:55 AM 55.4 °F - 51.8 °F 88% 29.76 in - South 10.4 mph - N/A   Mostly Cloudy
2:15 AM 55.4 °F - 51.8 °F 88% 29.76 in - SSW 11.5 mph 18.4 mph N/A   Mostly Cloudy
2:35 AM 57.2 °F - 53.6 °F 88% 29.76 in - SSW 13.8 mph 18.4 mph N/A   Unknown
2:55 AM 57.2 °F - 53.6 °F 88% 29.76 in - SSW 15.0 mph - N/A   Unknown
3:15 AM 57.2 °F - 51.8 °F 82% 29.76 in - SSW 13.8 mph 19.6 mph N/A   Scattered Clouds
4:15 AM 57.2 °F - 53.6 °F 88% 29.76 in - SSW 10.4 mph - N/A   Overcast
4:35 AM 57.2 °F - 53.6 °F 88% 29.76 in - SW 9.2 mph - N/A   Unknown
4:55 AM 57.2 °F - 53.6 °F 88% 29.76 in - SSW 8.1 mph - N/A   Unknown
5:15 AM 55.4 °F - 51.8 °F 88% 29.76 in - SSW 9.2 mph - N/A   Unknown
5:35 AM 55.4 °F - 53.6 °F 94% 29.75 in - SSW 11.5 mph - N/A   Unknown
5:55 AM 55.4 °F - 51.8 °F 88% 29.75 in - SSW 10.4 mph - N/A   Unknown
6:15 AM 55.4 °F - 51.8 °F 88% 29.75 in - SSW 9.2 mph - N/A   Unknown
6:35 AM 55.4 °F - 51.8 °F 88% 29.76 in - SSW 8.1 mph - N/A   Unknown
6:55 AM 55.4 °F - 51.8 °F 88% 29.76 in - SSW 9.2 mph - N/A   Unknown
7:15 AM 55.4 °F - 51.8 °F 88% 29.76 in - SSW 8.1 mph - N/A   Unknown
7:35 AM 55.4 °F - 51.8 °F 88% 29.76 in - SSW 8.1 mph - N/A   Unknown
8:15 AM 55.4 °F - 51.8 °F 88% 29.77 in - SW 9.2 mph - N/A   Unknown
8:35 AM 53.6 °F - 51.8 °F 94% 29.76 in - SW 6.9 mph - N/A   Unknown
8:55 AM 53.6 °F - 50.0 °F 88% 29.76 in - SW 6.9 mph - N/A   Unknown
9:15 AM 53.6 °F - 51.8 °F 94% 29.77 in - SW 6.9 mph - N/A   Unknown
9:35 AM 55.4 °F - 51.8 °F 88% 29.77 in - SW 8.1 mph - N/A   Unknown
9:55 AM 55.4 °F - 53.6 °F 94% 29.78 in - SW 8.1 mph - N/A   Unknown
10:15 AM 55.4 °F - 53.6 °F 94% 29.78 in - SW 8.1 mph - N/A   Overcast
10:35 AM 55.4 °F - 53.6 °F 94% 29.77 in - WSW 8.1 mph - N/A   Overcast
10:55 AM 57.2 °F - 53.6 °F 88% 29.77 in - WSW 9.2 mph - N/A   Mostly Cloudy
11:15 AM 57.2 °F - 53.6 °F 88% 29.77 in - SW 10.4 mph - N/A   Unknown
11:35 AM 59.0 °F - 51.8 °F 77% 29.78 in - WSW 11.5 mph - N/A   Partly Cloudy
11:55 AM 57.2 °F - 51.8 °F 82% 29.77 in - SW 10.4 mph - N/A   Partly Cloudy
12:15 PM 57.2 °F - 50.0 °F 77% 29.75 in - WSW 8.1 mph - N/A   Partly Cloudy
12:35 PM 57.2 °F - 48.2 °F 72% 29.73 in - WSW 8.1 mph - N/A   Clear
12:55 PM 59.0 °F - 50.0 °F 72% 29.72 in - WSW 9.2 mph - N/A   Clear
1:35 PM 57.2 °F - 50.0 °F 77% 29.72 in - SW 13.8 mph - N/A   Clear
1:55 PM 59.0 °F - 46.4 °F 63% 29.72 in - SW 13.8 mph - N/A   Clear
2:15 PM 57.2 °F - 48.2 °F 72% 29.72 in - SW 15.0 mph - N/A   Clear
2:35 PM 57.2 °F - 48.2 °F 72% 29.71 in - SW 13.8 mph - N/A   Clear
2:55 PM 57.2 °F - 46.4 °F 67% 29.70 in - SW 10.4 mph - N/A   Clear
3:15 PM 57.2 °F - 48.2 °F 72% 29.70 in - SW 8.1 mph - N/A   Clear
3:35 PM 57.2 °F - 48.2 °F 72% 29.71 in - SW 6.9 mph - N/A   Clear
3:55 PM 55.4 °F - 48.2 °F 77% 29.71 in - SSW 6.9 mph - N/A   Clear
4:15 PM 55.4 °F - 48.2 °F 77% 29.70 in - South 4.6 mph - N/A   Clear
4:35 PM 55.4 °F - 46.4 °F 72% 29.70 in - SSW 3.5 mph - N/A   Clear
5:15 PM 55.4 °F - 44.6 °F 67% 29.69 in - Calm Calm - N/A   Clear
5:35 PM 53.6 °F - 44.6 °F 72% 29.69 in - Calm Calm - N/A   Clear
5:55 PM 53.6 °F - 44.6 °F 72% 29.70 in - Calm Calm - N/A   Clear
6:15 PM 53.6 °F - 44.6 °F 72% 29.70 in - Calm Calm - N/A   Clear
6:35 PM 51.8 °F - 44.6 °F 76% 29.71 in - Calm Calm - N/A   Clear
6:55 PM 51.8 °F - 44.6 °F 76% 29.71 in - Calm Calm - N/A   Clear
7:15 PM 51.8 °F - 44.6 °F 76% 29.72 in - Calm Calm - N/A   Mostly Cloudy
7:35 PM 48.2 °F - 42.8 °F 82% 29.72 in - South 3.5 mph - N/A   Mostly Cloudy
8:15 PM 48.2 °F - 44.6 °F 87% 29.72 in - Calm Calm - N/A   Unknown
8:35 PM 50.0 °F - 44.6 °F 82% 29.72 in - South 3.5 mph - N/A   Mostly Cloudy
8:55 PM 48.2 °F - 44.6 °F 87% 29.73 in - SW 3.5 mph - N/A   Unknown
9:15 PM 46.4 °F 44.3 °F 42.8 °F 87% 29.73 in - South 4.6 mph - N/A   Unknown
9:35 PM 48.2 °F - 44.6 °F 87% 29.74 in - SSW 5.8 mph - N/A   Mostly Cloudy
9:55 PM 48.2 °F - 44.6 °F 87% 29.75 in - SSW 5.8 mph - N/A   Overcast
10:15 PM 48.2 °F - 44.6 °F 87% 29.75 in - South 6.9 mph - N/A   Unknown
10:35 PM 48.2 °F - 44.6 °F 87% 29.74 in - WSW 3.5 mph - N/A   Unknown
10:55 PM 48.2 °F - 44.6 °F 87% 29.74 in - SW 5.8 mph - N/A   Unknown
11:15 PM 50.0 °F - 46.4 °F 87% 29.75 in - SW 6.9 mph - N/A   Unknown
11:35 PM 48.2 °F - 44.6 °F 87% 29.75 in - SW 3.5 mph - N/A   Unknown
11:55 PM 46.4 °F - 42.8 °F 87% 29.75 in - Calm Calm - N/A   Unknown